Flag for Israel Weather past 2 weeks in Hadera, Israel

Now
77 °F

Passing clouds.


Feels Like: 79 °F
Forecast: 80 / 89 °F
Wind: 3 mph from North

Location: Ben Gurion International Airport

Current Time: Aug 29, 2015 at 4:28:47 AM

Latest Report: Aug 29, 2015 at 3:50 AM


Visibility: N/A

Pressure: 29.86 "Hg

Humidity: 79%

Dew point: 70 °F

Location of HaderaLocation

Historic Weather in Hadera — Graph

°F

Hadera temperature yesterday

Maximum temperature yesterday: 90 °F (at 12:20 PM)
Minimum temperature yesterday: 77 °F (at 4:20 AM)
Average temperature yesterday: 84 °F

Past Weeks' High & Low Weather Summary

 TemperatureHumidityPressure
High100 °F (Aug 16, 2:20 PM)84% (Aug 15, 1:50 AM)29.89 "Hg (Aug 15, 1:50 AM)
Low75 °F (Aug 26, 4:20 AM)40% (Aug 16, 8:50 AM)29.71 "Hg (Aug 16, 2:20 PM)
Average84 °F65%29.79 "Hg
* Reported Aug 14 3:20 AM — Aug 29 3:20 AM, Hadera, Weather by CustomWeather, © 2015

Note: Actual official high and low records may vary slightly from our data, if they occured in-between our weather recording intervals... More about our weather records

Advertising

Hadera weather history for previous 24 hours

 ConditionsComfort  
Time TempWeatherWind HumidityBarometerVisibility
3:20 AM
Sat, Aug 29
77 °FPassing clouds.3 mph79%29.86 "HgN/A
2:50 AM77 °FPassing clouds.3 mph79%29.86 "HgN/A
2:20 AM79 °FPassing clouds.1 mph74%29.89 "HgN/A
1:50 AM79 °FPassing clouds.3 mph74%29.89 "HgN/A
1:20 AM79 °FPassing clouds.3 mph74%29.89 "HgN/A
12:50 AM81 °FPassing clouds.3 mph70%29.89 "HgN/A
12:20 AM82 °FPassing clouds.2 mph70%29.89 "HgN/A
11:50 PM
Fri, Aug 28
82 °FPassing clouds.3 mph70%29.89 "HgN/A
11:20 PM82 °FClear.3 mph70%29.89 "Hg10 mi
10:50 PM82 °FPassing clouds.3 mph70%29.89 "HgN/A
10:20 PM82 °FPassing clouds.3 mph70%29.89 "HgN/A
9:50 PM82 °FClear.5 mph70%29.89 "Hg10 mi
9:20 PM82 °FClear.3 mph70%29.89 "Hg10 mi
8:50 PM82 °FClear.6 mph70%29.89 "Hg10 mi
8:20 PM84 °FClear.6 mph66%29.89 "Hg10 mi
7:50 PM84 °FSunny.7 mph66%29.89 "Hg10 mi
7:20 PM84 °FSunny.7 mph66%29.86 "Hg10 mi
6:50 PM86 °FSunny.10 mph59%29.86 "Hg10 mi
6:20 PM86 °FSunny.9 mph59%29.86 "Hg10 mi
5:50 PM88 °FSunny.10 mph55%29.86 "Hg10 mi
5:20 PM88 °FSunny.13 mph55%29.86 "Hg10 mi
4:50 PM90 °FSunny.14 mph52%29.86 "Hg10 mi
4:20 PM90 °FSunny.14 mph49%29.86 "Hg10 mi
3:50 PM90 °FPassing clouds.13 mph46%29.86 "HgN/A
3:20 PM90 °FPassing clouds.12 mph49%29.86 "HgN/A
2:50 PM90 °FPassing clouds.12 mph52%29.86 "HgN/A
2:20 PM90 °FPassing clouds.13 mph52%29.89 "HgN/A
1:50 PM90 °FPassing clouds.14 mph52%29.89 "HgN/A
1:20 PM90 °FPassing clouds.13 mph49%29.89 "HgN/A
12:50 PM90 °FPassing clouds.10 mph49%29.89 "HgN/A
12:20 PM90 °FPassing clouds.10 mph52%29.89 "HgN/A
11:50 AM88 °FPassing clouds.9 mph55%29.89 "HgN/A
11:20 AM88 °FPassing clouds.8 mph55%29.89 "HgN/A
10:50 AM88 °FPassing clouds.7 mph55%29.89 "HgN/A
10:20 AM88 °FPassing clouds.2 mph55%29.89 "HgN/A
9:50 AM86 °FScattered clouds.3 mph62%29.89 "HgN/A
9:20 AM84 °FScattered clouds.3 mph66%29.89 "HgN/A
8:50 AM82 °FPassing clouds.3 mph70%29.89 "HgN/A
8:20 AM82 °FPassing clouds.2 mph70%29.89 "HgN/A
7:50 AM79 °FPassing clouds.3 mph74%29.89 "HgN/A
6:50 AM77 °FPassing clouds.5 mph79%29.86 "Hg6 mi
6:20 AM77 °FPassing clouds.3 mph79%29.86 "HgN/A
5:50 AM77 °FPassing clouds.3 mph79%29.86 "HgN/A
5:20 AM77 °FPassing clouds.3 mph79%29.86 "HgN/A
4:50 AM77 °FPassing clouds.5 mph83%29.86 "HgN/A
4:20 AM77 °FPassing clouds.5 mph83%29.86 "HgN/A
Weather by CustomWeather, © 2015

See weather overviewHow to use our weather pages